This demonstration page uses our WeatherBlox Daily Observations layout. Learn more.

Left ArrowRight Arrow

34.02893, -84.19858

Hourly Observations for August 5, 2022

Temp ( °F °C ) Dew Point ( °F °C ) Humidity (%) Winds ( mph kmh ) Pressure ( in mb ) Visibility ( mi km ) Precip ( " mm )
12:53 am 00:53 Clear 73 22.8 72 22.2 96 96 Calm 30.09 1019 10 16 0.00 0.00
1:53 am 01:53 Cloudy 74 23.3 72 22.2 94 94 Calm 30.09 1019 10 16 0.00 0.00
2:53 am 02:53 Clear 73 22.8 72 22.2 96 96 Calm 30.07 1018 10 16 0.00 0.00
3:53 am 03:53 Clear 72 22.2 71 21.7 97 97 Calm 30.08 1019 10 16 0.00 0.00
4:53 am 04:53 Clear 72 22.2 71 21.7 97 97 Calm 30.09 1019 9 14 0.00 0.00
5:53 am 05:53 Clear 73 22.8 70 21.1 90 90 Calm 30.09 1019 10 16 0.00 0.00
6:53 am 06:53 Sunny 72 22.2 71 21.7 97 97 NNE 5 7 30.12 1020 10 16 0.00 0.00
7:53 am 07:53 Sunny 74 23.3 72 22.2 94 94 Calm 30.14 1021 10 16 0.00 0.00
8:53 am 08:53 Partly Cloudy 76 24.4 72 22.2 88 88 Calm 30.15 1021 10 16 0.00 0.00
9:53 am 09:53 Mostly Sunny 79 26.1 73 22.8 82 82 Calm 30.16 1021 10 16 0.00 0.00
10:53 am 10:53 Sunny 82 27.8 73 22.8 74 74 Calm 30.16 1021 10 16 0.00 0.00
11:53 am 11:53 Sunny 84 28.9 73 22.8 70 70 VRB 3 6 30.16 1021 10 16 0.00 0.00
12:53 pm 12:53 Mostly Cloudy 85 29.4 73 22.8 68 68 VRB 3 6 30.15 1021 10 16 0.00 0.00
1:53 pm 13:53 Partly Cloudy 88 31.1 73 22.8 61 61 VRB 5 7 30.12 1020 10 16 0.00 0.00
2:53 pm 14:53 Sunny 89 31.7 72 22.2 57 57 SSE 6 9 30.10 1019 10 16 0.00 0.00
3:53 pm 15:53 Sunny 90 32.2 71 21.7 54 54 SSE 9 15 30.08 1019 10 16 0.00 0.00
4:53 pm 16:53 Mostly Sunny 89 31.7 71 21.7 55 55 VRB 7 11 30.06 1018 10 16 0.00 0.00
5:18 pm 17:18 Sunny with Nearby Thunderstorms 89 31.7 71 21.7 55 55 S 7 11 30.04 1017 10 16 0.00 0.00
5:37 pm 17:37 Mostly Cloudy with Thunderstorms 86 30 71 21.7 61 61 SSE 8 13 30.07 1018 10 16 0.00 0.00
5:53 pm 17:53 Cloudy with Thunderstorms 81 27.2 69 20.6 67 67 WSW 16 26 30.09 1019 10 16 0.00 0.00
6:02 pm 18:02 Cloudy with Thunderstorms 79 26.1 69 20.6 72 72 SW 10 17 30.10 1019 10 16 0.00 0.00
6:53 pm 18:53 Partly Cloudy with Nearby Thunderstorms 75 23.9 71 21.7 88 88 NW 8 13 30.11 1020 10 16 0.01 0.25
7:11 pm 19:11 Partly Cloudy with Thunderstorms 75 23.9 71 21.7 88 88 N 6 9 30.11 1020 10 16 0.00 0.00
7:27 pm 19:27 Mostly Sunny 75 23.9 71 21.7 88 88 NNE 3 6 30.11 1020 10 16 0.00 0.00
7:53 pm 19:53 Mostly Sunny 75 23.9 71 21.7 88 88 N 5 7 30.11 1020 10 16 0.00 0.00
8:53 pm 20:53 Clear 75 23.9 72 22.2 90 90 NNW 3 6 30.11 1020 10 16 0.00 0.00
9:53 pm 21:53 Clear 75 23.9 72 22.2 90 90 Calm 30.12 1020 10 16 0.00 0.00
10:53 pm 22:53 Clear 74 23.3 71 21.7 91 91 NNE 3 6 30.14 1021 10 16 0.00 0.00
11:53 pm 23:53 Clear 74 23.3 71 21.7 91 91 VRB 3 6 30.15 1021 10 16 0.00 0.00

Powered by AerisWeather